Weather History for KRNM - February, 2013

Change the Weather History Date:

Tuesday, February 26, 2013

  Actual Average Record
Temperature  
Mean Temperature 48 °F 52 °F  
Max Temperature 73 °F 65 °F 86 °F (1980)
Min Temperature 23 °F 38 °F 23 °F (2013)
Degree Days  
Heating Degree Days 17 13  
Month to date heating degree days 439 368  
Since 1 July heating degree days 1751 1715  
Cooling Degree Days 0 0  
Month to date cooling degree days 0 0  
Year to date cooling degree days 0 1  
Moisture  
Dew Point 20 °F    
Average Humidity 50    
Maximum Humidity 88    
Minimum Humidity 12    
Precipitation  
Precipitation 0.00 in 0.13 in 1.79 in (2011)
Month to date precipitation 0.96 2.89  
Year to date precipitation 2.56 6.21  
Since 1 July precipitation 6.20  
Snow  
Snow 0.00 in - - ()
Month to date snowfall 0.0  
Year to date snowfall 0.0  
Since 1 July snowfall 0.0  
Snow Depth 0.00 in    
Sea Level Pressure  
Sea Level Pressure 30.03 in    
Wind  
Wind Speed 4 mph (ENE)    
Max Wind Speed 18 mph    
Max Gust Speed 22 mph    
Visibility 10 miles    
Events      
T = Trace of Precipitation, MM = Missing Value Source: NWS Daily Summary

Daily Weather History Graph

Daily Weather History Graph

Search for Another Location

Airport or City:

Trip Planner

Search our weather history database for the weather conditions in past years. The results will help you decide how hot, cold, wet, or windy it might be!

Date:

Astronomy

Feb. 26, 2013 Rise Set
Actual Time 6:18 AM PST 5:42 PM PST
Civil Twilight 5:53 AM PST 6:07 PM PST
Nautical Twilight 5:25 AM PST 6:36 PM PST
Astronomical Twilight 4:56 AM PST 7:04 PM PST
Moon 6:56 PM PST (2/26) 6:29 AM PST (2/26)
Length of Visible Light 12h 13m
Length of Day
11h 23m
Full, 99% of the Moon is Illuminated
Feb 26
Full
Mar 4
Last Quarter
Mar 11
New
Mar 19
First Quarter
Mar 27
Full

Hourly Weather History & Observations

Time (PST) Temp. Windchill Dew Point Humidity Pressure Visibility Wind Dir Wind Speed Gust Speed Precip Events Conditions
12:53 AM 27.0 °F 21.6 °F 23.0 °F 85% 30.07 in 10.0 mi SE 4.6 mph - N/A   Clear
1:53 AM 28.0 °F 24.2 °F 23.0 °F 81% 30.04 in 10.0 mi SSE 3.5 mph - N/A   Clear
2:53 AM 28.0 °F - 23.0 °F 81% 30.02 in 10.0 mi Calm Calm - N/A   Clear
3:53 AM 27.0 °F - 21.9 °F 81% 30.01 in 10.0 mi Calm Calm - N/A   Clear
4:53 AM 25.0 °F - 21.0 °F 85% 30.01 in 10.0 mi Calm Calm - N/A   Clear
5:53 AM 24.1 °F - 19.0 °F 81% 30.02 in 10.0 mi Calm Calm - N/A   Clear
6:53 AM 26.1 °F - 21.0 °F 81% 30.03 in 10.0 mi Calm Calm - N/A   Clear
7:53 AM 39.0 °F - 28.9 °F 67% 30.02 in 10.0 mi Calm Calm - N/A   Clear
8:53 AM 51.1 °F - 28.0 °F 41% 30.03 in 10.0 mi Calm Calm - N/A   Clear
9:53 AM 57.9 °F - 21.9 °F 25% 30.04 in 10.0 mi WNW 4.6 mph - N/A   Clear
10:53 AM 60.1 °F - 21.0 °F 22% 30.03 in 10.0 mi Variable 4.6 mph - N/A   Clear
11:53 AM 64.9 °F - 25.0 °F 22% 30.00 in 10.0 mi Variable 4.6 mph - N/A   Clear
12:53 PM 72.0 °F - 19.0 °F 13% 29.97 in 10.0 mi ENE 13.8 mph 18.4 mph N/A   Clear
1:53 PM 71.1 °F - 16.0 °F 12% 29.97 in 10.0 mi East 12.7 mph 18.4 mph N/A   Clear
2:53 PM 70.0 °F - 16.0 °F 13% 29.97 in 10.0 mi East 12.7 mph 20.7 mph N/A   Clear
3:53 PM 69.1 °F - 17.1 °F 14% 29.98 in 10.0 mi ENE 13.8 mph - N/A   Clear
4:53 PM 66.0 °F - 16.0 °F 15% 29.99 in 10.0 mi East 8.1 mph - N/A   Clear
5:53 PM 60.1 °F - 16.0 °F 18% 30.01 in 10.0 mi ENE 9.2 mph - N/A   Clear
6:53 PM 57.0 °F - 17.1 °F 21% 30.04 in 10.0 mi ENE 4.6 mph - N/A   Clear
7:53 PM 53.1 °F - 18.0 °F 25% 30.06 in 10.0 mi NE 10.4 mph - N/A   Clear
8:53 PM 50.0 °F - 19.0 °F 29% 30.08 in 10.0 mi NE 5.8 mph - N/A   Clear
9:53 PM 51.1 °F - 18.0 °F 27% 30.09 in 10.0 mi NNE 9.2 mph - N/A   Clear
10:53 PM 51.1 °F - 16.0 °F 25% 30.09 in 10.0 mi NE 10.4 mph - N/A   Clear
11:53 PM 55.0 °F - 12.9 °F 19% 30.10 in 10.0 mi ENE 8.1 mph - N/A   Clear